Weather in Hersonisos

Greece     35°18′32″N   25°21′51″E
temp.,
°C
wind,
m/s
gust,
m/s
humid.,
%
clouds,
%
prec.,
mm/h
press.,
hPa
HPBL,
m
12 may, wed
wed1200:00+13n13654 0.0 101392
03:00+12ne12675 0.0 101277
06:00+12e12550 0.0 101230
09:00+19nw23290 0.0 1012312
12:00+22nnw343060 0.0 1012518
15:00+24n223049 0.0 1011778
18:00+22nnw2140100 0.0 1011430
21:00+17sse11520 0.0 101111
13 may, thu
thu1300:00+17sse22440 0.0 101114
03:00+16s22450 0.0 101023
06:00+15s22450 0.0 101021
09:00+21s12361 0.0 1011352
12:00+23nnw33415 0.0 1011869
15:00+22nnw43480 0.0 1011792
18:00+21n22544 0.0 1012478
21:00+16nne11775 0.0 101320
14 may, fri
fri1400:00+16sse227434 0.0 101328
03:00+15s117074 0.0 101322
06:00+15ese117126 0.0 101322
09:00+21ne11380 0.0 1014419
12:00+25nnw33310 0.0 10151053
15:00+23nnw43410 0.0 1015843
18:00+21nnw22470 0.0 1016453
21:00+17e11580 0.0 101622
15 may, sat
sat1500:00+17s22590 0.0 101618
03:00+16sse22595 0.0 101525
06:00+16s12535 0.0 101419
09:00+23ne013361 0.0 1014350
12:00+26nnw333190 0.0 1014893
15:00+25nnw33382 0.0 1013967
18:00+24nnw12415 0.0 1012670
21:00+19se2254100 0.0 101120
16 may, sun
sun1600:00+19sse4541100 0.0 101082
03:00+17s3349100 0.0 100943
06:00+16wnw1266100 0.0 100861
09:00+20nnw47410 0.0 1008757
12:00+21nnw1011510 0.0 10081092
15:00+20nnw910581 0.0 10091017
18:00+18nnw78662 0.0 1008798
21:00+15nne138315 0.0 1009100